TimeCDT,TemperatureF,Dew PointF,Humidity,Sea Level PressureIn,VisibilityMPH,Wind Direction,Wind SpeedMPH,Gust SpeedMPH,PrecipitationIn,Events,Conditions,WindDirDegrees,DateUTC
12:49 AM,28.4,26.6,93,30.09,10.0,North,10.4,-,N/A,Snow,Light Snow,350,2013-03-24 05:49:00
12:55 AM,29.1,27.5,94,30.09,10.0,North,11.5,-,0.00,Snow,Light Snow,350,2013-03-24 05:55:00
12:58 AM,29.1,27.5,94,30.17,10.0,North,10.4,-,0.00,Snow,Light Snow,350,2013-03-24 05:58:00
1:19 AM,28.4,28.4,100,30.09,7.0,North,12.7,-,N/A,Snow,Light Snow,350,2013-03-24 06:19:00
1:23 AM,28.4,28.4,100,30.09,3.0,North,10.4,-,N/A,Snow,Light Snow,350,2013-03-24 06:23:00
1:55 AM,28.6,28.4,99,30.09,4.0,North,10.4,-,0.00,Snow,Light Snow,360,2013-03-24 06:55:00
2:02 AM,28.4,28.4,100,30.09,5.0,North,10.4,-,N/A,Snow,Light Snow,360,2013-03-24 07:02:00
2:55 AM,28.6,28.4,99,30.08,6.0,North,12.7,16.1,0.00,Snow,Light Snow,350,2013-03-24 07:55:00
3:07 AM,28.4,28.4,100,30.09,7.0,NNW,9.2,-,N/A,Snow,Light Snow,340,2013-03-24 08:07:00
3:55 AM,28.2,26.2,92,30.07,10.0,North,16.1,23.0,0.00,Snow,Light Snow,360,2013-03-24 08:55:00
4:00 AM,28.4,26.6,93,30.07,10.0,North,9.2,23.0,N/A,,Overcast,350,2013-03-24 09:00:00
4:03 AM,28.4,26.6,93,30.07,10.0,North,16.1,23.0,N/A,Snow,Light Snow,360,2013-03-24 09:03:00
4:46 AM,26.6,23.0,86,30.07,5.0,North,12.7,-,N/A,Snow,Light Snow,350,2013-03-24 09:46:00
4:55 AM,26.8,23.4,87,30.07,5.0,North,9.2,-,0.00,Snow,Light Snow,350,2013-03-24 09:55:00
5:55 AM,26.1,20.3,79,30.08,10.0,NNW,9.2,21.9,0.00,,Mostly Cloudy,340,2013-03-24 10:55:00
6:46 AM,24.8,21.2,86,30.07,10.0,NNW,10.4,17.3,N/A,Snow,Light Snow,340,2013-03-24 11:46:00
6:55 AM,25.7,22.3,87,30.07,10.0,NNW,11.5,-,0.00,Snow,Light Snow,340,2013-03-24 11:55:00
7:23 AM,26.6,23.0,86,30.07,2.5,NNW,9.2,16.1,N/A,Snow,Light Snow,330,2013-03-24 12:23:00
7:31 AM,26.6,23.0,86,30.07,3.0,NNW,5.8,16.1,N/A,Snow,Light Snow,340,2013-03-24 12:31:00
7:40 AM,26.6,24.8,93,30.07,2.5,NNW,6.9,17.3,N/A,Snow,Light Snow,330,2013-03-24 12:40:00
7:55 AM,26.1,24.1,92,30.08,5.0,NNW,8.1,-,0.00,Snow,Light Snow,340,2013-03-24 12:55:00
8:01 AM,26.6,23.0,86,30.08,8.0,Variable,6.9,-,N/A,Snow,Light Snow,0,2013-03-24 13:01:00
8:37 AM,26.6,23.0,86,30.07,10.0,NNW,11.5,18.4,N/A,,Overcast,330,2013-03-24 13:37:00
8:55 AM,27.1,23.2,85,30.07,10.0,NNW,10.4,17.3,0.00,,Overcast,330,2013-03-24 13:55:00
9:04 AM,26.6,23.0,86,30.07,10.0,NNW,10.4,17.3,N/A,,Overcast,340,2013-03-24 14:04:00
9:55 AM,27.3,23.5,86,30.08,8.0,NNW,13.8,20.7,0.00,Snow,Light Snow,330,2013-03-24 14:55:00
10:55 AM,27.5,23.4,84,30.08,8.0,NNW,11.5,18.4,0.00,Snow,Light Snow,330,2013-03-24 15:55:00
11:30 AM,26.6,23.0,86,30.07,10.0,NNW,9.2,16.1,N/A,Snow,Light Snow,340,2013-03-24 16:30:00
12:31 PM,26.6,23.0,86,30.08,10.0,NW,11.5,-,N/A,,Overcast,320,2013-03-24 17:31:00
12:55 PM,27.5,21.4,78,30.08,10.0,NNW,13.8,-,0.00,,Overcast,330,2013-03-24 17:55:00
1:55 PM,28.2,20.5,73,30.07,10.0,NW,18.4,-,N/A,,Overcast,320,2013-03-24 18:55:00
2:55 PM,29.1,20.1,69,30.06,10.0,NW,18.4,24.2,N/A,,Mostly Cloudy,320,2013-03-24 19:55:00
3:39 PM,28.4,21.2,74,30.06,10.0,NW,18.4,-,N/A,,Mostly Cloudy,310,2013-03-24 20:39:00
3:44 PM,28.4,21.2,74,30.06,10.0,NW,20.7,26.5,N/A,,Mostly Cloudy,310,2013-03-24 20:44:00
3:55 PM,28.4,20.8,73,30.06,10.0,NW,20.7,27.6,0.00,,Mostly Cloudy,310,2013-03-24 20:55:00
3:57 PM,28.4,21.2,74,30.05,10.0,NW,19.6,28.8,N/A,,Mostly Cloudy,310,2013-03-24 20:57:00
4:45 PM,28.4,19.4,69,30.06,10.0,NW,19.6,25.3,N/A,,Mostly Cloudy,320,2013-03-24 21:45:00
4:46 PM,28.4,19.4,69,30.06,10.0,NW,17.3,25.3,N/A,,Mostly Cloudy,320,2013-03-24 21:46:00
4:55 PM,28.6,19.6,69,30.06,10.0,NW,20.7,28.8,0.00,,Mostly Cloudy,320,2013-03-24 21:55:00
5:30 PM,28.4,19.4,69,30.07,10.0,NW,21.9,26.5,N/A,,Overcast,310,2013-03-24 22:30:00
5:55 PM,28.2,18.3,66,30.07,10.0,NW,24.2,31.1,0.00,,Overcast,320,2013-03-24 22:55:00
5:56 PM,28.4,17.6,64,30.07,10.0,NW,21.9,31.1,N/A,,Overcast,320,2013-03-24 22:56:00
5:58 PM,28.4,17.6,64,30.07,10.0,NW,19.6,31.1,N/A,,Overcast,320,2013-03-24 22:58:00
5:59 PM,28.4,17.6,64,30.07,10.0,NW,19.6,31.1,N/A,,Overcast,320,2013-03-24 22:59:00
6:00 PM,28.4,19.4,69,30.08,10.0,NW,18.4,31.1,N/A,,Overcast,320,2013-03-24 23:00:00
6:01 PM,28.4,19.4,69,30.08,10.0,NW,19.6,31.1,N/A,,Overcast,320,2013-03-24 23:01:00
6:02 PM,28.4,19.4,69,30.08,10.0,NW,18.4,25.3,N/A,,Overcast,320,2013-03-24 23:02:00
6:03 PM,28.4,19.4,69,30.08,10.0,NW,19.6,25.3,N/A,,Overcast,320,2013-03-24 23:03:00
6:10 PM,28.4,19.4,69,30.08,10.0,NW,20.7,25.3,N/A,,Overcast,320,2013-03-24 23:10:00
6:14 PM,28.4,19.4,69,30.08,10.0,NW,16.1,-,N/A,,Overcast,310,2013-03-24 23:14:00
6:31 PM,28.4,19.4,69,30.09,10.0,NW,17.3,27.6,N/A,,Overcast,320,2013-03-24 23:31:00
6:43 PM,28.4,19.4,69,30.09,10.0,NW,17.3,24.2,N/A,,Mostly Cloudy,320,2013-03-24 23:43:00
6:55 PM,28.0,19.2,70,30.09,10.0,NW,16.1,21.9,N/A,,Scattered Clouds,310,2013-03-24 23:55:00
7:55 PM,27.0,21.7,81,30.10,8.0,NW,16.1,23.0,0.00,Snow,Light Snow,310,2013-03-25 00:55:00
8:09 PM,26.6,21.2,80,30.10,10.0,NW,18.4,-,N/A,Snow,Light Snow,310,2013-03-25 01:09:00
8:55 PM,26.2,21.7,83,30.11,10.0,NW,11.5,-,0.00,Snow,Light Snow,310,2013-03-25 01:55:00
9:14 PM,26.6,21.2,80,30.11,10.0,NW,12.7,-,N/A,Snow,Light Snow,320,2013-03-25 02:14:00
9:55 PM,26.2,22.1,84,30.12,10.0,NW,11.5,-,0.00,Snow,Light Snow,310,2013-03-25 02:55:00
10:00 PM,26.6,23.0,86,30.12,10.0,NW,12.7,-,N/A,Snow,Light Snow,310,2013-03-25 03:00:00
10:29 PM,26.6,23.0,86,30.12,8.0,NW,16.1,-,N/A,Snow,Light Snow,310,2013-03-25 03:29:00
10:55 PM,26.1,23.5,90,30.11,9.0,NW,16.1,-,0.00,Snow,Light Snow,310,2013-03-25 03:55:00
11:09 PM,26.6,23.0,86,30.11,10.0,NW,15.0,-,N/A,,Scattered Clouds,310,2013-03-25 04:09:00
11:14 PM,26.6,23.0,86,30.11,10.0,NW,15.0,-,N/A,Snow,Light Snow,310,2013-03-25 04:14:00
11:55 PM,26.2,24.4,93,30.11,10.0,NW,15.0,-,0.00,Snow,Light Snow,310,2013-03-25 04:55:00